This is the latest recevied weather packets stored in our database for station/object KE0QIB. If no packets are shown the sender has not sent any weather packets the latest 10 day(s).
| Time | Temp. | Humidity | Pressure | Rain* | Wind** | Luminosity | Snow |
|---|---|---|---|---|---|---|---|
| 1777741621 | 21.67° C | 22% | 997.8 hPa | 0 mm | - | - | - |
| 1777741321 | 21.11° C | 25% | 997.8 hPa | 0 mm | - | - | - |
| 1777741021 | 21.11° C | 22% | 997.8 hPa | 0 mm | - | - | - |
| 1777740721 | 21.11° C | 21% | 997.9 hPa | 0 mm | - | - | - |
| 1777740421 | 21.11° C | 24% | 997.9 hPa | 0 mm | - | - | - |
| 1777740121 | 21.11° C | 21% | 997.9 hPa | 0 mm | - | - | - |
| 1777739821 | 21.11° C | 22% | 998.2 hPa | 0 mm | - | - | - |
| 1777739521 | 21.11° C | 24% | 998.2 hPa | 0 mm | - | - | - |
| 1777739221 | 21.11° C | 24% | 998.2 hPa | 0 mm | - | - | - |
| 1777738921 | 21.11° C | 23% | 998.5 hPa | 0 mm | - | - | - |
| 1777738621 | 20.56° C | 22% | 998.5 hPa | 0 mm | - | - | - |
| 1777738321 | 20.56° C | 22% | 998.5 hPa | 0 mm | - | - | - |
| 1777738021 | 20.56° C | 23% | 998.9 hPa | 0 mm | - | - | - |
| 1777737721 | 20.56° C | 20% | 998.9 hPa | 0 mm | - | - | - |
| 1777737421 | 20.56° C | 21% | 998.9 hPa | 0 mm | - | - | - |
| 1777737121 | 20.56° C | 21% | 998.9 hPa | 0 mm | - | - | - |
| 1777736821 | 20.56° C | 22% | 998.9 hPa | 0 mm | - | - | - |
| 1777736521 | 20.56° C | 22% | 998.9 hPa | 0 mm | - | - | - |
| 1777736221 | 20.56° C | 24% | 998.9 hPa | 0 mm | - | - | - |
| 1777735921 | 20° C | 22% | 998.9 hPa | 0 mm | - | - | - |
| 1777735621 | 20° C | 23% | 998.9 hPa | 0 mm | - | - | - |
| 1777735321 | 20° C | 26% | 999.1 hPa | 0 mm | - | - | - |
| 1777735021 | 20° C | 26% | 999.1 hPa | 0 mm | - | - | - |
| 1777734721 | 19.44° C | 26% | 999.1 hPa | 0 mm | - | - | - |
| 1777734422 | 19.44° C | 25% | 999.5 hPa | 0 mm | - | - | - |
* Rain latest hour (hover to see other rain measurements)
** Current wind speed in m/s (hover to see current wind gust speed)